Time,TemperatureF,DewpointF,PressureIn,WindDirection,WindDirectionDegrees,WindSpeedMPH,WindSpeedGustMPH,Humidity,HourlyPrecipIn,Conditions,Clouds,dailyrainin,SoftwareType,DateUTC
2013-09-20 00:13:00,68.5,67.0,29.87,ESE,118,0.0,4.0,96,0.00,,,0.00,weatherlink.com 1.10,2013-09-20 04:13:00,
2013-09-20 00:27:00,68.5,67.0,29.88,SE,137,0.0,1.0,96,0.00,,,0.00,weatherlink.com 1.10,2013-09-20 04:27:00,
2013-09-20 00:42:00,68.8,68.0,29.88,WSW,242,1.0,3.0,96,0.00,,,0.00,weatherlink.com 1.10,2013-09-20 04:42:00,
2013-09-20 00:58:00,69.7,69.0,29.87,ESE,112,1.0,4.0,96,0.00,,,0.00,weatherlink.com 1.10,2013-09-20 04:58:00,
2013-09-20 01:12:00,70.5,69.0,29.87,SSE,148,2.0,5.0,95,0.00,,,0.00,weatherlink.com 1.10,2013-09-20 05:12:00,
2013-09-20 01:27:00,71.7,70.0,29.86,East,98,2.0,8.0,93,0.00,,,0.00,weatherlink.com 1.10,2013-09-20 05:27:00,
2013-09-20 01:43:00,72.4,70.0,29.86,WSW,249,4.0,6.0,92,0.00,,,0.00,weatherlink.com 1.10,2013-09-20 05:43:00,
2013-09-20 01:57:00,72.7,70.0,29.86,ESE,122,1.0,9.0,92,0.00,,,0.00,weatherlink.com 1.10,2013-09-20 05:57:00,
2013-09-20 02:13:00,72.7,70.0,29.86,NE,41,0.0,5.0,92,0.00,,,0.00,weatherlink.com 1.10,2013-09-20 06:13:00,
2013-09-20 02:27:00,72.8,70.0,29.86,SE,134,4.0,5.0,92,0.00,,,0.00,weatherlink.com 1.10,2013-09-20 06:27:00,
2013-09-20 02:43:00,72.5,70.0,29.86,WSW,257,0.0,4.0,93,0.00,,,0.00,weatherlink.com 1.10,2013-09-20 06:43:00,
2013-09-20 02:58:00,72.2,70.0,29.85,WNW,287,0.0,4.0,93,0.00,,,0.00,weatherlink.com 1.10,2013-09-20 06:58:00,
2013-09-20 03:13:00,72.1,70.0,29.84,South,190,0.0,5.0,93,0.00,,,0.00,weatherlink.com 1.10,2013-09-20 07:13:00,
2013-09-20 03:28:00,71.9,70.0,29.84,SW,236,1.0,7.0,94,0.00,,,0.00,weatherlink.com 1.10,2013-09-20 07:28:00,
2013-09-20 03:43:00,71.9,70.0,29.84,East,96,0.0,2.0,94,0.00,,,0.00,weatherlink.com 1.10,2013-09-20 07:43:00,
2013-09-20 03:58:00,72.0,70.0,29.83,East,96,1.0,2.0,94,0.00,,,0.00,weatherlink.com 1.10,2013-09-20 07:58:00,
2013-09-20 04:13:00,72.2,70.0,29.83,ESE,113,0.0,3.0,94,0.00,,,0.00,weatherlink.com 1.10,2013-09-20 08:13:00,
2013-09-20 04:28:00,72.2,70.0,29.82,SE,143,1.0,3.0,94,0.00,,,0.00,weatherlink.com 1.10,2013-09-20 08:28:00,
2013-09-20 04:43:00,72.2,70.0,29.82,East,96,0.0,3.0,94,0.00,,,0.00,weatherlink.com 1.10,2013-09-20 08:43:00,
2013-09-20 04:58:00,72.2,70.0,29.82,SSE,164,0.0,9.0,94,0.01,,,0.01,weatherlink.com 1.10,2013-09-20 08:58:00,
2013-09-20 05:13:00,71.9,71.0,29.81,South,184,0.0,4.0,95,0.01,,,0.01,weatherlink.com 1.10,2013-09-20 09:13:00,
2013-09-20 05:28:00,71.6,70.0,29.81,SW,236,2.0,3.0,96,0.01,,,0.01,weatherlink.com 1.10,2013-09-20 09:28:00,
2013-09-20 05:43:00,71.5,70.0,29.80,South,171,0.0,5.0,96,0.01,,,0.01,weatherlink.com 1.10,2013-09-20 09:43:00,
2013-09-20 05:58:00,71.4,70.0,29.80,West,271,0.0,3.0,96,0.00,,,0.01,weatherlink.com 1.10,2013-09-20 09:58:00,
2013-09-20 06:13:00,71.1,70.0,29.79,East,80,2.0,3.0,96,0.00,,,0.01,weatherlink.com 1.10,2013-09-20 10:13:00,
2013-09-20 06:28:00,71.1,70.0,29.79,SE,134,2.0,5.0,97,0.00,,,0.01,weatherlink.com 1.10,2013-09-20 10:28:00,
2013-09-20 06:43:00,71.0,70.0,29.80,East,86,1.0,4.0,96,0.00,,,0.01,weatherlink.com 1.10,2013-09-20 10:43:00,
2013-09-20 06:58:00,71.0,70.0,29.80,SE,143,2.0,3.0,96,0.00,,,0.01,weatherlink.com 1.10,2013-09-20 10:58:00,
2013-09-20 07:14:00,70.9,70.0,29.81,WSW,254,3.0,4.0,97,0.00,,,0.01,weatherlink.com 1.10,2013-09-20 11:14:00,
2013-09-20 07:29:00,71.1,70.0,29.82,WSW,256,3.0,6.0,97,0.00,,,0.01,weatherlink.com 1.10,2013-09-20 11:29:00,
2013-09-20 07:44:00,71.2,70.0,29.82,SSE,167,2.0,3.0,96,0.00,,,0.01,weatherlink.com 1.10,2013-09-20 11:44:00,
2013-09-20 07:59:00,71.2,70.0,29.83,SSE,155,2.0,4.0,96,0.00,,,0.01,weatherlink.com 1.10,2013-09-20 11:59:00,
2013-09-20 08:14:00,71.2,70.0,29.83,WSW,253,0.0,5.0,96,0.00,,,0.01,weatherlink.com 1.10,2013-09-20 12:14:00,
2013-09-20 08:29:00,71.2,70.0,29.83,SSE,155,0.0,4.0,96,0.00,,,0.01,weatherlink.com 1.10,2013-09-20 12:29:00,
2013-09-20 08:44:00,71.0,70.0,29.83,NE,44,0.0,1.0,96,0.00,,,0.01,weatherlink.com 1.10,2013-09-20 12:44:00,
2013-09-20 08:59:00,70.8,69.0,29.83,ENE,62,2.0,4.0,95,0.00,,,0.01,weatherlink.com 1.10,2013-09-20 12:59:00,
2013-09-20 09:14:00,70.9,69.0,29.84,SW,222,2.0,6.0,94,0.00,,,0.01,weatherlink.com 1.10,2013-09-20 13:14:00,
2013-09-20 09:29:00,70.9,68.0,29.84,ENE,58,1.0,5.0,91,0.00,,,0.01,weatherlink.com 1.10,2013-09-20 13:29:00,
2013-09-20 09:44:00,70.5,68.0,29.84,East,93,2.0,5.0,91,0.00,,,0.01,weatherlink.com 1.10,2013-09-20 13:44:00,
2013-09-20 09:59:00,70.2,68.0,29.84,East,98,0.0,5.0,91,0.00,,,0.01,weatherlink.com 1.10,2013-09-20 13:59:00,
2013-09-20 10:14:00,70.1,67.0,29.84,SW,228,1.0,4.0,91,0.00,,,0.01,weatherlink.com 1.10,2013-09-20 14:14:00,
2013-09-20 10:29:00,70.3,67.0,29.84,SSW,212,0.0,5.0,90,0.00,,,0.01,weatherlink.com 1.10,2013-09-20 14:29:00,
2013-09-20 10:44:00,70.5,67.0,29.84,ESE,105,2.0,7.0,89,0.00,,,0.01,weatherlink.com 1.10,2013-09-20 14:44:00,
2013-09-20 10:59:00,70.1,67.0,29.84,ESE,113,1.0,4.0,89,0.00,,,0.01,weatherlink.com 1.10,2013-09-20 14:59:00,
2013-09-20 11:14:00,69.8,67.0,29.83,WSW,248,2.0,3.0,90,0.00,,,0.01,weatherlink.com 1.10,2013-09-20 15:14:00,
2013-09-20 11:29:00,69.7,67.0,29.83,ENE,61,3.0,5.0,90,0.00,,,0.01,weatherlink.com 1.10,2013-09-20 15:29:00,
2013-09-20 11:44:00,70.5,67.0,29.83,WSW,253,0.0,6.0,87,0.00,,,0.01,weatherlink.com 1.10,2013-09-20 15:44:00,
2013-09-20 12:14:00,70.9,67.0,29.83,NNW,348,1.0,4.0,87,0.00,,,0.01,weatherlink.com 1.10,2013-09-20 16:14:00,
2013-09-20 12:29:00,70.4,66.0,29.83,NW,314,0.0,4.0,87,0.00,,,0.01,weatherlink.com 1.10,2013-09-20 16:29:00,
2013-09-20 12:44:00,70.1,67.0,29.83,SSE,156,4.0,4.0,88,0.00,,,0.01,weatherlink.com 1.10,2013-09-20 16:44:00,
2013-09-20 12:59:00,70.3,67.0,29.83,ESE,122,0.0,5.0,89,0.00,,,0.01,weatherlink.com 1.10,2013-09-20 16:59:00,
2013-09-20 13:14:00,70.7,67.0,29.82,WSW,239,0.0,5.0,87,0.00,,,0.01,weatherlink.com 1.10,2013-09-20 17:14:00,
2013-09-20 13:29:00,70.8,67.0,29.82,East,90,2.0,8.0,86,0.00,,,0.01,weatherlink.com 1.10,2013-09-20 17:29:00,
2013-09-20 13:44:00,70.7,66.0,29.81,South,173,2.0,5.0,86,0.00,,,0.01,weatherlink.com 1.10,2013-09-20 17:44:00,
2013-09-20 13:59:00,70.6,66.0,29.81,WSW,246,1.0,6.0,86,0.00,,,0.01,weatherlink.com 1.10,2013-09-20 17:59:00,
2013-09-20 14:14:00,70.8,67.0,29.80,ENE,74,2.0,5.0,86,0.00,,,0.01,weatherlink.com 1.10,2013-09-20 18:14:00,
2013-09-20 14:29:00,70.9,67.0,29.80,SSW,200,1.0,5.0,86,0.00,,,0.01,weatherlink.com 1.10,2013-09-20 18:29:00,
2013-09-20 14:44:00,70.9,67.0,29.79,SSE,152,0.0,3.0,87,0.00,,,0.01,weatherlink.com 1.10,2013-09-20 18:44:00,
2013-09-20 14:59:00,70.7,67.0,29.80,ESE,105,0.0,2.0,87,0.00,,,0.01,weatherlink.com 1.10,2013-09-20 18:59:00,
2013-09-20 15:14:00,70.4,67.0,29.79,East,86,0.0,1.0,89,0.00,,,0.01,weatherlink.com 1.10,2013-09-20 19:14:00,
2013-09-20 15:29:00,70.1,67.0,29.80,SW,216,0.0,1.0,90,0.00,,,0.01,weatherlink.com 1.10,2013-09-20 19:29:00,
2013-09-20 15:44:00,70.5,68.0,29.79,South,181,1.0,3.0,90,0.00,,,0.01,weatherlink.com 1.10,2013-09-20 19:44:00,
2013-09-20 15:59:00,71.2,68.0,29.78,West,263,0.0,5.0,88,0.00,,,0.01,weatherlink.com 1.10,2013-09-20 19:59:00,
2013-09-20 16:14:00,71.1,67.0,29.78,SW,226,1.0,5.0,87,0.00,,,0.01,weatherlink.com 1.10,2013-09-20 20:14:00,
2013-09-20 16:29:00,70.9,67.0,29.78,WSW,253,0.0,2.0,88,0.00,,,0.01,weatherlink.com 1.10,2013-09-20 20:29:00,
2013-09-20 16:44:00,70.7,67.0,29.77,SSE,167,0.0,2.0,88,0.00,,,0.01,weatherlink.com 1.10,2013-09-20 20:44:00,
2013-09-20 16:59:00,70.8,67.0,29.77,SE,134,2.0,4.0,88,0.00,,,0.01,weatherlink.com 1.10,2013-09-20 20:59:00,
2013-09-20 17:14:00,70.4,67.0,29.77,SSE,166,1.0,3.0,89,0.00,,,0.01,weatherlink.com 1.10,2013-09-20 21:14:00,
2013-09-20 17:29:00,70.3,67.0,29.77,SSE,156,0.0,2.0,89,0.00,,,0.01,weatherlink.com 1.10,2013-09-20 21:29:00,
2013-09-20 17:44:00,70.1,67.0,29.77,ESE,122,0.0,1.0,90,0.00,,,0.01,weatherlink.com 1.10,2013-09-20 21:44:00,
2013-09-20 17:59:00,69.9,67.0,29.76,ESE,123,0.0,0.0,90,0.00,,,0.01,weatherlink.com 1.10,2013-09-20 21:59:00,
2013-09-20 18:14:00,69.8,67.0,29.77,ESE,103,0.0,1.0,91,0.00,,,0.01,weatherlink.com 1.10,2013-09-20 22:14:00,
2013-09-20 18:29:00,69.7,67.0,29.77,ESE,107,0.0,1.0,90,0.00,,,0.01,weatherlink.com 1.10,2013-09-20 22:29:00,
2013-09-20 18:44:00,69.4,66.0,29.77,ESE,110,0.0,0.0,90,0.00,,,0.01,weatherlink.com 1.10,2013-09-20 22:44:00,
2013-09-20 18:59:00,68.9,66.0,29.76,ESE,111,0.0,1.0,91,0.00,,,0.01,weatherlink.com 1.10,2013-09-20 22:59:00,
2013-09-20 19:14:00,68.5,66.0,29.76,ESE,111,0.0,0.0,91,0.00,,,0.01,weatherlink.com 1.10,2013-09-20 23:14:00,
2013-09-20 19:29:00,68.0,66.0,29.76,ESE,110,0.0,0.0,92,0.00,,,0.01,weatherlink.com 1.10,2013-09-20 23:29:00,
2013-09-20 19:44:00,67.5,65.0,29.76,ESE,110,0.0,0.0,92,0.00,,,0.01,weatherlink.com 1.10,2013-09-20 23:44:00,
2013-09-20 19:59:00,67.1,65.0,29.76,ESE,111,0.0,0.0,93,0.00,,,0.01,weatherlink.com 1.10,2013-09-20 23:59:00,
2013-09-20 20:14:00,66.6,65.0,29.76,ESE,110,0.0,0.0,94,0.00,,,0.01,weatherlink.com 1.10,2013-09-21 00:14:00,
2013-09-20 20:29:00,66.3,65.0,29.76,ESE,110,0.0,0.0,94,0.00,,,0.01,weatherlink.com 1.10,2013-09-21 00:29:00,
2013-09-20 20:44:00,66.0,65.0,29.76,ESE,110,0.0,0.0,95,0.00,,,0.01,weatherlink.com 1.10,2013-09-21 00:44:00,
2013-09-20 20:59:00,66.0,65.0,29.77,ESE,110,0.0,0.0,95,0.00,,,0.01,weatherlink.com 1.10,2013-09-21 00:59:00,
2013-09-20 21:14:00,66.2,64.0,29.77,SE,142,0.0,1.0,93,0.00,,,0.01,weatherlink.com 1.10,2013-09-21 01:14:00,
2013-09-20 21:29:00,66.6,64.0,29.77,NW,325,0.0,2.0,90,0.00,,,0.01,weatherlink.com 1.10,2013-09-21 01:29:00,
2013-09-20 21:44:00,66.4,63.0,29.78,North,356,0.0,4.0,89,0.00,,,0.01,weatherlink.com 1.10,2013-09-21 01:44:00,
2013-09-20 21:59:00,65.8,63.0,29.77,ESE,116,0.0,1.0,90,0.00,,,0.01,weatherlink.com 1.10,2013-09-21 01:59:00,
2013-09-20 22:14:00,65.5,62.0,29.78,East,98,0.0,1.0,89,0.00,,,0.01,weatherlink.com 1.10,2013-09-21 02:14:00,
2013-09-20 22:29:00,65.0,62.0,29.77,North,355,1.0,1.0,89,0.00,,,0.01,weatherlink.com 1.10,2013-09-21 02:29:00,
2013-09-20 22:44:00,64.6,61.0,29.78,North,352,0.0,1.0,89,0.00,,,0.01,weatherlink.com 1.10,2013-09-21 02:44:00,
2013-09-20 22:59:00,64.5,61.0,29.78,NW,323,1.0,2.0,88,0.00,,,0.01,weatherlink.com 1.10,2013-09-21 02:59:00,
2013-09-20 23:14:00,64.1,61.0,29.78,NNW,344,1.0,2.0,88,0.00,,,0.01,weatherlink.com 1.10,2013-09-21 03:14:00,
2013-09-20 23:30:00,63.7,60.0,29.78,NNE,32,2.0,7.0,88,0.00,,,0.01,weatherlink.com 1.10,2013-09-21 03:30:00,
2013-09-20 23:45:00,63.3,59.0,29.78,NNW,335,0.0,2.0,87,0.00,,,0.01,weatherlink.com 1.10,2013-09-21 03:45:00,